Location: Wanzleben
(52.0609°N, 11.4408°E)
Time: 11:02:04
(UTC+00:00)

USA 116 - Pass Details

Date: 18 September 2020
Orbit: 405 x 834 km, 97.9° (Epoch: 18 November)

Event Time Altitude Azimuth Distance (km) Brightness Sun altitude
Rises 18:16:15 0° 14° (NNE) 2,405 7.0 -9.2°
Reaches altitude 10° 18:18:11 10° 13° (NNE) 1,566 6.1 -9.5°
Maximum altitude 18:21:31 85° 286° (WNW) 477 3.4 -10.0°
Drops below altitude 10° 18:25:10 10° 198° (SSW) 1,717 6.3 -10.5°
Sets 18:27:22 0° 197° (SSW) 2,665 7.2 -10.8°
